This demonstration page uses our WeatherBlox Daily Observations layout. Learn more.

Left ArrowRight Arrow

Hourly Observations for March 18, 2015

Temp ( °F °C ) Dew Point ( °F °C ) Humidity (%) Winds ( mph kmh ) Pressure ( in mb ) Visibility ( mi km ) Precip ( " mm )
12:53 am 00:53 Clear 53 11.7 46 7.8 77 77 NNW 6 9 30.06 1018 10 16 0.00 0.00
2:53 am 02:53 Clear 57 13.9 40 4.4 53 53 NNW 6 9 30.06 1018 10 16 0.00 0.00
3:53 am 03:53 Clear 59 15 38 3.3 46 46 NNW 10 17 30.06 1018 10 16 0.00 0.00
4:53 am 04:53 Clear 57 13.9 38 3.3 49 49 NNW 8 13 30.06 1018 10 16 0.00 0.00
5:53 am 05:53 Clear 56 13.3 38 3.3 51 51 NNW 7 11 30.06 1018 10 16 0.00 0.00
6:53 am 06:53 Clear 57 13.9 37 2.8 47 47 NW 6 9 30.06 1018 10 16 0.00 0.00
7:53 am 07:53 Sunny 57 13.9 37 2.8 47 47 NNW 9 15 30.06 1018 10 16 0.00 0.00
8:53 am 08:53 Sunny 61 16.1 37 2.8 41 41 NNW 15 24 30.06 1018 10 16 0.00 0.00
9:53 am 09:53 Sunny 63 17.2 37 2.8 38 38 N 20 31 30.06 1018 10 16 0.00 0.00
10:53 am 10:53 Sunny 66 18.9 36 2.2 33 33 NNW 14 22 30.06 1018 10 16 0.00 0.00
11:53 am 11:53 Sunny 70 21.1 35 1.7 28 28 N 16 26 30.06 1018 10 16 0.00 0.00
12:53 pm 12:53 Sunny 72 22.2 34 1.1 25 25 NNW 15 24 30.04 1017 10 16 0.00 0.00
1:53 pm 13:53 Sunny 76 24.4 33 0.6 21 21 N 13 20 30.01 1016 10 16 0.00 0.00
2:53 pm 14:53 Sunny 77 25 33 0.6 20 20 N 13 20 29.98 1015 10 16 0.00 0.00
3:53 pm 15:53 Sunny 79 26.1 35 1.7 20 20 N 12 19 29.97 1015 10 16 0.00 0.00
4:53 pm 16:53 Sunny 79 26.1 36 2.2 21 21 N 13 20 29.96 1015 10 16 0.00 0.00
5:53 pm 17:53 Sunny 79 26.1 36 2.2 21 21 N 12 19 29.95 1014 10 16 0.00 0.00
6:53 pm 18:53 Sunny 77 25 35 1.7 22 22 NNW 7 11 29.95 1014 10 16 0.00 0.00
7:53 pm 19:53 Clear 72 22.2 35 1.7 26 26 NNW 6 9 29.96 1014 10 16 0.00 0.00
8:53 pm 20:53 Clear 69 20.6 35 1.7 29 29 NNW 7 11 29.98 1015 10 16 0.00 0.00
9:53 pm 21:53 Clear 68 20 35 1.7 30 30 N 9 15 30.01 1016 10 16 0.00 0.00
10:53 pm 22:53 Clear 67 19.4 35 1.7 31 31 NNW 7 11 30.02 1017 10 16 0.00 0.00
11:53 pm 23:53 Clear 62 16.7 35 1.7 37 37 WNW 5 7 30.03 1017 10 16 0.00 0.00

Powered by AerisWeather